Regional Weather Roundup
Issued by NWS Wakefield, VA

Home | Current Version | Previous Version | Graphics & Text | Print | Product List | Glossary On
Versions: 1 2 3 4 5 6 7 8 9 10 11 12 13 14 15 16 17 18 19 20 21 22 23 24 25 26 27 28
000
ASUS41 KAKQ 021415
RWRAKQ

REGIONAL WEATHER ROUNDUP
NATIONAL WEATHER SERVICE WAKEFIELD VA
900 AM EST FRI DEC 02 2016

Note: "fair" indicates few or no clouds below 12,000 feet with no
significant weather and/or obstructions to visibility. * = Denotes
station may not report precipitation (e.g., rain,snow,etc.),
thunder or fog.

VAZ042-051-052>054-056-021500-
NORTHERN VIRGINIA

CITY           SKY/WX    TMP DP  RH WIND       PRES   REMARKS
WASH NATIONAL  PTSUNNY   49  28  44 W10       30.07S
DULLES         MOSUNNY   45  27  49 W8        30.07R
FORT BELVOIR   PTSUNNY   48  27  44 W10       30.07S
QUANTICO       PTSUNNY   42  34  73 W3        30.10R
FREDERICKSBRG* SUNNY     40  35  80 CALM      30.09S
STAFFORD*      SUNNY     37  33  86 CALM      30.13S
WARRENTON      MOSUNNY   41  30  65 CALM      30.07S
CULPEPER*      SUNNY     41  34  75 CALM      30.09S
MANASSAS*      SUNNY     36  32  87 CALM      30.08
LEESBURG*      CLOUDY    45  32  61 W13G20    30.08R
WINCHESTER     CLOUDY    41  27  56 W7        30.06S
FRONT ROYAL*   CLOUDY    43  28  56 SW3       30.06R
LURAY*         CLOUDY    45  32  61 SW5       30.06S
$$

VAZ048-049-060>072-079>083-021500-
CENTRAL AND SOUTH CENTRAL VIRGINIA

CITY           SKY/WX    TMP DP  RH WIND       PRES   REMARKS
RICHMOND       MOSUNNY   42  32  67 W5        30.10R
CHESTERFIELD*  FAIR      43  21  42 W5        30.12R
PETERSBURG*    SUNNY     41  34  75 SW3       30.12S
HANOVER        MOSUNNY   42  32  67 W6        30.12R
TAPPAHANNOCK*  MOSUNNY   42  30  63 SW7       30.11R
QUINTON*       FAIR      40  33  77 CALM      30.11R
CHARLOTTSVILLE SUNNY     42  29  59 VRB3      30.08R
GORDONSVILLE*  FAIR      37  31  78 SW5       30.08S
ORANGE*          N/A     37  32  81 CALM      30.09S
LOUISA*        SUNNY     43  34  70 SW3       30.08S
BUMPASS*       FAIR      38  32  77 SW3       30.10R
FARMVILLE*     MOSUNNY   39  33  79 SW3       30.10S
CREWE*         FAIR      42  32  69 W3        30.11R
FORT PICKETT*  FAIR      41  29  60 SW3       30.11S
CHASE CITY*    FAIR      41  31  68 CALM      30.12S
CLARKSVILLE*   FAIR      41  32  70 CALM      30.12S
SOUTH HILL*    SUNNY     42  32  67 W5        30.18R
LAWRENCEVILLE* FAIR      40  32  73 CALM      30.12S
EMPORIA*       MOSUNNY   41  34  75 SW3       30.14S
$$

VAZ088>098-021500-
SOUTHEAST VIRGINIA

CITY           SKY/WX    TMP DP  RH WIND       PRES   REMARKS
NORFOLK        SUNNY     49  34  56 NW6       30.11R
VIRGINIA BEACH SUNNY     48  34  58 NW6       30.10R
NORFOLK NAVAL  SUNNY     49  35  58 NW6       30.12R
WEST POINT*    MOSUNNY   41  37  83 CALM      30.13R
SALUDA*        FAIR      41  34  74 CALM      30.10R
NEWPORT NEWS   SUNNY     45  39  79 CALM      30.11R
LANGLEY AFB    SUNNY     46  37  70 W6        30.10R
FORT EUSTIS    SUNNY     46  36  67 W3        30.09R
WILLIAMSBURG*  SUNNY     45  37  76 CALM      30.12S
HR EXEC AP*    FAIR      43  36  75 NW5       30.11R
FRANKLIN*      SUNNY     42  33  72 W3        30.13S
US460-WAKEFLD  SUNNY     42  33  70 W3        30.12R
$$

VAZ020-022-025-037-045-021500-
WEST CENTRAL AND SOUTHWEST VIRGINIA

CITY           SKY/WX    TMP DP  RH WIND       PRES   REMARKS
STAUNTON*      SUNNY     40  30  68 SW5       30.09R
WAYNESBORO*    FAIR      40  28  61 W7        30.07S
HOT SPRINGS VA CLOUDY    32  27  80 W16G22    29.98S WCI  21
LYNCHBURG      SUNNY     38  32  79 CALM      30.11R
DANVILLE       MOSUNNY   37  35  92 SW3       30.14R
SOUTH BOSTON*  FAIR      39  34  82 W3        30.13F
MARTINSVILLE   SUNNY     35  32  87 CALM      30.17R
ROANOKE        MOSUNNY   44  27  51 W15G24    30.13R
BLACKSBURG     MOSUNNY   37  28  70 W7G21     30.14R
DUBLIN*        MOSUNNY   38  29  69 W7        30.13R
MARION*        SUNNY     34  31  89 SW12G17   30.14R
HILLSVILLE*    SUNNY     34  28  80 W9        30.10R
RICHLANDS*     FAIR      33  29  83 SW6       30.14R
WISE*          MOSUNNY   34  28  80 SW3       30.16R
ABINGDON*      SUNNY     34  33  96 W7        30.18R
$$

MDZ021>025-VAZ099-100-021500-
SOUTHERN MARYLAND AND THE DELMARVA PENINSULA

CITY           SKY/WX    TMP DP  RH WIND       PRES   REMARKS
PATUXENT RIVER MOSUNNY   45  33  63 W10       30.08R
BAY BRIDGE APT NOT AVBL
LEONARDTOWN    SUNNY     43  34  70 W6        30.09R
DOVER          SUNNY     45  30  55 W8        30.01S
GEORGETOWN     SUNNY     44  29  55 W6        30.04S
EASTON         NOT AVBL
CAMBRIDGE      SUNNY     45  30  57 W7        30.05S
SALISBURY      SUNNY     46  31  55 W10       30.05R
OCEAN CITY     SUNNY     44  32  62 W7        30.05R
WALLOPS ISLAND MOSUNNY   46  32  58 W9        30.07S
ACCOMACK*      SUNNY     48  32  53 NW9       30.09R
$$

NCZ012>017-030>032-021500-
NORTH CENTRAL AND EASTERN NORTH CAROLINA

CITY           SKY/WX    TMP DP  RH WIND       PRES   REMARKS
ROANOKE RAPIDS FAIR      43  34  70 W3        30.13S
RALEIGH        MOSUNNY   43  33  68 CALM      30.15R
ELIZABETH CITY MOSUNNY   47  37  68 NW7       30.12R
AHOSKIE*       SUNNY     40  33  77 CALM      30.14R
EDENTON*       MOSUNNY   46  38  72 CALM      30.14R
CURRITUCK*     MOSUNNY   45  36  69 NW3       30.12R
KILL DEVIL HLS MOSUNNY   50  41  72 CALM      30.09R
MANTEO         MOSUNNY   49  39  67 N8        30.11R
CAPE HATTERAS  SUNNY     54  41  61 N9        30.09R
TARBORO*       NOT AVBL
GOLDSBORO      SUNNY     46  34  64 CALM      30.13R
WASHINGTON     SUNNY     44  34  67 NW5       30.14R
GREENVILLE     SUNNY     43  34  70 N3        30.15R
NEW BERN       SUNNY     48  34  58 N9        30.14R
WILMINGTON     SUNNY     48  34  58 N8        30.14R
$$

VAZ048-021500-
ELSEWHERE

CITY           SKY/WX    TMP DP  RH WIND       PRES   REMARKS
HARRISBURG PA  CLOUDY    42  32  67 NW14      30.00R
BALTIMORE      PTSUNNY   45  28  51 W16       30.04R
ANNAPOLIS      MOSUNNY   48  28  46 W12G24    30.04R
ANDREWS AFB    MOSUNNY   47  26  44 W14       30.05S
PHILADELPHIA   PTSUNNY   45  28  51 W15       29.99R
HENDERSON NC   SUNNY     39  30  70 CALM      30.13R
GREENSBORO     MOSUNNY   45  30  55 NW8       30.14R
ROCKY MOUNT    SUNNY     43  35  73 VRB3      30.14R
$$

VAZ100-021500-
MARINE

STATION/POSITION TIME  TEMP    WIND        PRES    WAVE   SWELL
                       AIR SEA DIR/SP/G            HT/PER HT/PER
                 (UTC) (F)     (DEG/KT/KT) (MB)    (FT/S) (FT/S)
BRANDYWINE LGT   1348   44     290/ 18/ 21   N/A
CAPE MAY NJ      1348   45 50  290/ 17/ 22 1016.1R
LEWES DE         1348   44 51  280/ 12/ 15 1016.7S
OCEAN-CITY-INLET 1336   43 51  300/  7/ 10 1017.7R
WACHAPREAGUE VA  1348   50 53  260/  2/  5 1018.8R
THOMAS POINT MD  1400   46 50  290/ 19/ 23   N/A
GOOSES REEF MD   1400   45 51  260/ 12/ 16 1018.7    1/ 2
COVE POINT MD    1348   44     280/  9/ 12 1018.8R
SOLOMONS ISLAND  1336   47 52  260/  7/ 10   N/A
BISHOPS HEAD MD  1348   46 49  280/ 16/ 19 1018.6R
PINEY POINT MD   1348          270/  9/ 11   N/A
POTOMAC MD       1400   45 52  260/ 12/ 14 1018.0    1/ 2
CAMBRIDGE MD     1348   46 49  270/  7/ 14 1017.0R
LEWISETTA VA     1348   43 52  260/  9/ 10 1018.7R
RAPPAHANNOCK LGT 1348          310/  9/ 11 1019.7R
STINGRAY PT      1400   45     290/  6/  8 1019.6    1
YORK RVR RNG VA  1348   47     280/  6/  7 1018.9R
YORKTOWN VA      1348   44 53  270/  5/  6 1019.2R
JAMESTOWN VA     1400   44 53  270/  4/  6   N/A     0
DOMINION TERM VA 1348   46     310/  6/  8 1019.6R
KIPTOPEKE VA     1348      53  320/  6/  9   N/A
CHES BAY BRIDGE  1348   47 54  310/  6/  9 1019.3R
CAPE HENRY VA    1348   48     320/ 10/ 12   N/A
WILLOUBY STN VA  1348   46     290/  7/  8 1020.4R
S CRANEY ISL VA  1348   46     280/  5/  7 1019.3R
CAPE HENRY BUOY  1342      56                N/A     3/ 5
1ST LANDING BUOY 1400   49 53              1019.4    1/ 3
CAPE CHARLES BUO 1356      56                N/A     3/ 5
OFFSHORE WE BUOY 1351      57                N/A     4/ 5
64NM E OF VA BCH 1350   51 60  340/ 16/ 21 1018.2R   5/ 6   2/ 8
DUCK PIER NC     1348   49 57  330/ 10/ 12 1018.8R
44100 DUCK FRF   1335      57                N/A     4/ 6
OREGON INLET NC  1336   51 59  360/  8/ 12 1018.9R
HATTERAS NC      1348   52 62  350/ 12/ 15 1018.6R
DIAMOND SHLS NC  1350   57 76   10/ 14/ 19 1018.3R   3/ 8   2/ 8
CAPE LOOKOUT NC  1300   47     350/ 11/ 16 1018.5R
$$




USA.gov is the U.S. government's official web portal to all federal, state and local government web resources and services.